Tracking 29892 objects as of 21-Nov-2024
HD Live streaming from Space Station
objects crossing your sky now

STARLINK-5668

Track STARLINK-5668 now!
10-day predictions
STARLINK-5668 is classified as:


NORAD ID: 55350
Int'l Code: 2023-013V
Perigee: 565.3 km
Apogee: 567.1 km
Inclination: 43.0 °
Period: 95.8 minutes
Semi major axis: 6937 km
RCS: Unknown
Launch date: January 26, 2023
Source: United States (US)
Launch site: AIR FORCE EASTERN TEST RANGE (AFETR)
Your satellite tracking list
Your tracking list is empty




NASA's NSSDC Master Catalog

Two Line Element Set (TLE):
1 55350U 23013V   24326.05675809  .00002317  00000-0  18652-3 0  9992
2 55350  43.0048 353.8444 0001269 276.4986  83.5712 15.02538718100894
Source of the keplerian elements: AFSPC